FW4613 Weather Reports


time (UTC)temp
C
wind
direction
speed
KPH
gust
KPH
rain 1hr
cm
rain 24hr
cm
rain mn
cm
humidity
%
barometer
mb
20260506232029 19 57 0.0 8.0 0.00 0.48 0.05 84 1009.2
20260506231508 19 63 3.2 12.9 0.00 0.48 0.05 84 1009.2
20260506231044 19 37 3.2 16.1 0.00 0.48 0.05 83 1009.2
20260506230522 19 59 1.6 17.7 0.00 0.48 0.05 83 1009.3
20260506230105 19 53 6.4 19.3 0.00 0.48 0.05 83 1009.4
20260506230002 19 34 6.4 19.3 0.00 0.48 0.05 83 1009.3
20260506225542 19 53 4.8 19.3 0.00 0.48 0.05 83 1009.3
20260506225024 19 83 4.8 17.7 0.00 0.48 0.05 82 1009.3
20260506224552 19 65 1.6 17.7 0.00 0.48 0.05 82 1009.1
20260506224030 20 355 3.2 17.7 0.00 0.48 0.05 82 1009.2
20260506223509 20 65 3.2 17.7 0.00 0.48 0.05 81 1009.1
20260506223031 20 42 4.8 16.1 0.00 0.48 0.05 81 1009.2
20260506222509 20 58 4.8 17.7 0.00 0.48 0.05 80 1009.1
20260506222045 20 68 0.0 14.5 0.00 0.48 0.05 82 1008.9
20260506221524 20 32 3.2 14.5 0.00 0.48 0.05 83 1008.8
20260506221045 19 67 3.2 12.9 0.00 0.48 0.05 83 1008.8
20260506220525 19 46 0.0 22.5 0.00 0.48 0.05 83 1009.1
20260506220058 19 72 4.8 22.5 0.00 0.48 0.05 83 1009.1
20260506215539 19 70 3.2 17.7 0.00 0.48 0.05 83 1009.1
20260506215018 19 63 3.2 16.1 0.00 0.48 0.05 83 1009.1
20260506214559 19 59 1.6 16.1 0.00 0.48 0.05 83 1009.0
20260506214034 19 50 4.8 19.3 0.00 0.48 0.05 83 1008.9
20260506213515 19 65 1.6 19.3 0.00 0.48 0.05 84 1009.1
20260506213056 19 56 1.6 11.3 0.00 0.48 0.05 83 1009.0
20260506212534 19 65 1.6 9.7 0.00 0.48 0.05 84 1008.8
20260506212012 19 69 1.6 12.9 0.00 0.48 0.05 84 1008.7
20260506211552 18 29 3.2 14.5 0.00 0.48 0.05 84 1008.8
20260506211031 18 47 6.4 14.5 0.00 0.48 0.05 84 1008.8
20260506210511 18 53 4.8 12.9 0.00 0.48 0.05 84 1008.8
20260506210046 18 63 3.2 12.9 0.00 0.48 0.05 85 1008.8
20260506205523 18 53 0.0 12.9 0.00 0.48 0.05 85 1008.8
20260506205005 18 56 3.2 9.7 0.00 0.48 0.05 85 1008.8
20260506204542 18 93 0.0 12.9 0.00 0.48 0.05 86 1008.8
20260506204023 18 54 3.2 16.1 0.00 0.48 0.05 85 1008.8
20260506203557 18 25 6.4 16.1 0.00 0.48 0.05 84 1008.7
20260506203034 18 69 3.2 16.1 0.00 0.48 0.05 85 1008.7
20260506202513 18 21 1.6 16.1 0.00 0.48 0.05 85 1008.7
20260506202046 18 73 0.0 17.7 0.00 0.48 0.05 86 1008.6
20260506201514 18 64 0.0 17.7 0.00 0.48 0.05 86 1008.7
20260506201045 18 84 3.2 19.3 0.00 0.48 0.05 86 1008.8
20260506200534 18 11 1.6 19.3 0.00 0.48 0.05 86 1008.7
20260506200049 18 58 3.2 22.5 0.00 0.48 0.05 86 1008.7
20260506195529 18 32 8.0 22.5 0.00 0.48 0.05 86 1008.9
20260506195016 18 41 3.2 24.1 0.00 0.48 0.05 86 1008.9
20260506194550 18 65 6.4 24.1 0.00 0.48 0.05 86 1008.9
20260506194026 17 188 1.6 12.9 0.00 0.48 0.05 88 1008.9
20260506193555 17 58 0.0 16.1 0.00 0.48 0.05 89 1009.0
20260506193044 17 77 3.2 14.5 0.00 0.48 0.05 89 1009.1
20260506192510 17 86 3.2 19.3 0.00 0.48 0.05 89 1009.3
20260506192043 17 59 4.8 24.1 0.00 0.48 0.05 88 1009.2
20260506191605 17 75 8.0 24.1 0.00 0.48 0.05 89 1009.2
20260506191508 17 49 8.0 24.1 0.00 0.48 0.05 89 1009.2
20260506191033 17 4 3.2 17.7 0.00 0.48 0.05 90 1009.3
20260506190513 17 94 3.2 16.1 0.00 0.48 0.05 91 1009.3
20260506190033 16 1 4.8 14.5 0.00 0.48 0.05 91 1009.4
20260506185507 16 63 0.0 14.5 0.00 0.48 0.05 92 1009.2
20260506185043 16 54 3.2 16.1 0.00 0.48 0.05 92 1009.3
20260506184604 16 53 3.2 17.7 0.00 0.48 0.05 92 1009.3
20260506184503 16 48 3.2 19.3 0.00 0.48 0.05 92 1009.3
20260506184025 16 39 1.6 24.1 0.00 0.48 0.05 91 1009.6
20260506183508 16 65 6.4 24.1 0.00 0.48 0.05 91 1009.5
20260506183041 16 76 3.2 20.9 0.00 0.48 0.05 91 1009.6
20260506182515 16 55 3.2 16.1 0.00 0.48 0.05 91 1009.6
20260506182051 16 72 4.8 17.7 0.00 0.48 0.05 90 1009.6
20260506181533 16 44 3.2 17.7 0.00 0.48 0.05 90 1009.6
20260506181047 16 62 3.2 22.5 0.00 0.48 0.05 90 1009.6
20260506180528 16 22 4.8 19.3 0.00 0.48 0.05 90 1009.6
20260506180012 16 61 8.0 19.3 0.00 0.48 0.05 91 1009.6
20260506175539 16 58 1.6 17.7 0.00 0.48 0.05 91 1009.6
20260506175017 16 77 1.6 17.7 0.00 0.48 0.05 91 1009.7
20260506174555 16 76 3.2 17.7 0.00 0.48 0.05 91 1009.6
20260506174016 16 108 4.8 19.3 0.00 0.48 0.05 92 1009.8
20260506173545 16 59 0.0 19.3 0.00 0.48 0.05 92 1009.7
20260506173048 16 78 1.6 17.7 0.00 0.48 0.05 92 1009.4
20260506172557 16 72 0.0 17.7 0.03 0.48 0.05 93 1009.4
20260506172034 16 89 1.6 19.3 0.03 0.48 0.05 93 1009.7
20260506171516 16 56 0.0 12.9 0.03 0.48 0.05 93 1010.0
20260506171035 16 46 3.2 14.5 0.03 0.48 0.05 93 1009.9
20260506170509 16 65 3.2 14.5 0.05 0.48 0.05 93 1009.9
20260506165559 16 69 0.0 11.3 0.08 0.48 0.05 93 1009.9
20260506165508 16 65 0.0 11.3 0.08 0.48 0.05 93 1009.9
20260506165035 16 66 0.0 12.9 0.08 0.48 0.05 93 1009.9
20260506164511 16 65 1.6 6.4 0.10 0.48 0.05 93 1009.9
20260506164038 16 82 0.0 4.8 0.13 0.48 0.05 94 1009.9
20260506163511 16 96 0.0 4.8 0.18 0.48 0.05 95 1009.9
20260506163056 16 57 1.6 4.8 0.20 0.48 0.05 94 1009.9
20260506162512 16 78 0.0 8.0 0.20 0.46 0.03 95 1009.7
20260506162045 16 65 0.0 8.0 0.23 0.46 0.03 94 1009.7
20260506161520 16 103 0.0 6.4 0.28 0.46 0.03 94 1010.1
20260506161055 16 117 0.0 9.7 0.28 0.46 0.03 94 1010.2
20260506160535 16 83 0.0 11.3 0.28 0.43 0.43 94 1010.6
20260506160011 16 63 0.0 11.3 0.30 0.43 0.43 93 1010.9
20260506155544 16 129 0.0 6.4 0.28 0.41 0.41 93 1011.0
20260506155017 16 65 0.0 6.4 0.28 0.41 0.41 93 1011.2
20260506154604 16 142 0.0 6.4 0.28 0.38 0.38 93 1011.1
20260506154027 16 58 0.0 6.4 0.25 0.36 0.36 92 1011.1
20260506153508 16 64 0.0 6.4 0.23 0.30 0.30 92 1011.3
20260506153042 16 67 0.0 11.3 0.23 0.28 0.28 91 1011.2
20260506152558 16 84 1.6 11.3 0.23 0.25 0.25 91 1011.1
20260506152508 16 84 1.6 11.3 0.23 0.25 0.25 91 1011.1
20260506152043 16 110 0.0 3.2 0.23 0.23 0.23 90 1011.2
20260506151601 16 68 0.0 9.7 0.18 0.18 0.20 90 1011.3
20260506151506 16 63 0.0 9.7 0.18 0.18 0.18 90 1011.3
20260506151043 16 349 0.0 9.7 0.15 0.15 0.18 90 1011.2
20260506150600 16 99 0.0 8.0 0.15 0.15 0.15 90 1011.1
20260506150501 16 70 0.0 8.0 0.15 0.15 0.15 90 1011.1
20260506150023 16 72 0.0 8.0 0.13 0.13 0.13 90 1011.1
20260506145559 16 75 0.0 8.0 0.13 0.13 0.13 90 1011.1
20260506145501 16 75 0.0 8.0 0.13 0.13 0.13 90 1011.1
20260506145024 16 77 0.0 1.6 0.13 0.13 0.13 90 1011.0
20260506144502 16 66 0.0 3.2 0.10 0.10 0.10 89 1010.7
20260506144026 17 150 0.0 6.4 0.10 0.10 0.10 88 1010.8
20260506143504 17 71 0.0 14.5 0.08 0.08 0.08 86 1010.9
20260506143027 17 77 0.0 14.5 0.05 0.05 0.05 85 1011.0
20260506142601 17 39 1.6 14.5 0.03 0.03 0.03 84 1011.1
20260506142504 17 52 0.0 14.5 0.03 0.03 0.03 84 1011.1
20260506142024 17 76 0.0 14.5 0.00 0.00 0.00 82 1011.1
20260506141504 18 120 4.8 14.5 0.00 0.00 0.00 81 1011.0
20260506141019 18 60 0.0 17.7 0.00 0.00 0.00 81 1011.0
20260506140540 18 69 3.2 19.3 0.00 0.00 0.00 79 1011.0
20260506140019 18 92 6.4 19.3 0.00 0.00 0.00 77 1010.9
20260506135538 19 67 4.8 12.9 0.00 0.00 0.00 77 1010.6
20260506135016 19 122 1.6 11.3 0.00 0.00 0.00 78 1010.7
20260506134536 19 75 1.6 12.9 0.00 0.00 0.00 78 1010.6
20260506134056 19 56 1.6 20.9 0.00 0.00 0.00 77 1010.6
20260506133532 18 18 4.8 20.9 0.00 0.00 0.00 77 1010.8
20260506133012 18 25 3.2 19.3 0.00 0.00 0.00 78 1011.0
20260506132534 18 55 1.6 14.5 0.00 0.00 0.00 78 1010.9
20260506132053 18 72 0.0 6.4 0.00 0.00 0.00 78 1010.9
20260506131528 18 70 0.0 11.3 0.00 0.00 0.00 78 1010.9
20260506131011 18 30 0.0 14.5 0.00 0.00 0.00 78 1011.0
20260506130533 18 73 0.0 24.1 0.00 0.00 0.00 77 1011.1
20260506130006 18 68 3.2 27.4 0.00 0.00 0.00 76 1011.2
20260506125530 18 86 6.4 27.4 0.00 0.00 0.00 76 1011.3
20260506125042 18 86 4.8 20.9 0.00 0.00 0.00 76 1011.4
20260506124524 18 336 6.4 19.3 0.00 0.00 0.00 75 1011.3
20260506124006 18 72 3.2 20.9 0.00 0.00 0.00 75 1011.1
20260506123532 18 53 4.8 20.9 0.00 0.00 0.00 76 1011.1
20260506123047 18 78 1.6 16.1 0.00 0.00 0.00 76 1011.1
20260506122523 18 104 3.2 19.3 0.00 0.00 0.00 76 1011.1
20260506122044 18 102 3.2 19.3 0.00 0.00 0.00 76 1011.0
20260506121504 18 93 1.6 12.9 0.00 0.00 0.00 76 1011.1
20260506121036 18 76 0.0 12.9 0.00 0.00 0.00 76 1011.0
20260506120519 18 60 0.0 6.4 0.00 0.00 0.00 77 1011.0
20260506120053 18 93 0.0 16.1 0.00 0.00 0.00 77 1010.9
20260506115535 18 49 3.2 16.1 0.00 0.00 0.00 76 1010.7
20260506115050 18 96 0.0 8.0 0.00 0.00 0.00 77 1010.8
20260506114539 18 67 0.0 9.7 0.00 0.00 0.00 77 1010.6
20260506114048 18 94 1.6 11.3 0.00 0.00 0.00 78 1010.7
20260506113511 18 62 1.6 11.3 0.00 0.00 0.00 77 1010.8
20260506113046 18 46 0.0 9.7 0.00 0.00 0.00 78 1010.7
20260506112511 18 88 0.0 11.3 0.00 0.00 0.00 78 1010.7
20260506112032 18 61 0.0 11.3 0.00 0.00 0.00 78 1010.6
20260506111510 18 104 0.0 11.3 0.00 0.00 0.00 79 1010.8
20260506111032 18 56 0.0 8.0 0.00 0.00 0.00 79 1010.7
20260506110554 18 62 0.0 3.2 0.00 0.00 0.00 79 1010.7
20260506110042 18 77 0.0 3.2 0.00 0.00 0.00 79 1010.7
20260506105554 17 87 0.0 6.4 0.00 0.00 0.00 79 1010.5
20260506105015 17 117 0.0 8.0 0.00 0.00 0.00 79 1010.6
20260506104611 17 75 0.0 8.0 0.00 0.00 0.00 79 1010.6
20260506104010 17 58 0.0 6.4 0.00 0.00 0.00 79 1010.4
20260506103533 18 152 0.0 8.0 0.00 0.00 0.00 79 1010.5
20260506103010 18 68 1.6 8.0 0.00 0.00 0.00 79 1010.4
20260506102533 18 60 0.0 1.6 0.00 0.00 0.00 79 1010.5
20260506102009 18 114 0.0 4.8 0.00 0.00 0.00 79 1010.3
20260506101531 18 155 0.0 6.4 0.00 0.00 0.00 79 1010.5
20260506101010 17 90 0.0 6.4 0.00 0.00 0.00 79 1010.5
20260506100531 18 55 0.0 1.6 0.00 0.00 0.00 79 1010.4
20260506100046 18 99 0.0 1.6 0.00 0.00 0.00 79 1010.5
20260506095522 18 103 0.0 3.2 0.00 0.00 0.00 79 1010.5
20260506095044 18 63 0.0 3.2 0.00 0.00 0.00 78 1010.5
20260506094534 18 89 0.0 1.6 0.00 0.00 0.00 78 1010.4
20260506094046 18 98 0.0 1.6 0.00 0.00 0.00 78 1010.4
20260506093524 18 69 0.0 6.4 0.00 0.00 0.00 78 1010.4
20260506093046 18 50 0.0 6.4 0.00 0.00 0.00 77 1010.3
20260506092532 18 103 0.0 4.8 0.00 0.00 0.00 77 1010.3
20260506092049 18 88 0.0 3.2 0.00 0.00 0.00 77 1010.3
20260506091533 18 127 0.0 4.8 0.00 0.00 0.00 76 1010.3
20260506091050 18 63 0.0 4.8 0.00 0.00 0.00 75 1010.3
20260506090518 18 108 0.0 9.7 0.00 0.00 0.00 75 1010.3
20260506090051 18 72 0.0 9.7 0.00 0.00 0.00 75 1010.3
20260506085513 18 65 0.0 8.0 0.00 0.00 0.00 75 1010.4
20260506085032 18 98 0.0 6.4 0.00 0.00 0.00 75 1010.4
20260506084550 18 91 0.0 6.4 0.00 0.00 0.00 75 1010.4
20260506084033 18 26 0.0 4.8 0.00 0.00 0.00 75 1010.4
20260506083546 18 56 0.0 9.7 0.00 0.00 0.00 75 1010.3
20260506083025 18 80 0.0 9.7 0.00 0.00 0.00 75 1010.4
20260506082545 18 88 0.0 11.3 0.00 0.00 0.00 75 1010.5
20260506082004 18 97 0.0 6.4 0.00 0.00 0.00 75 1010.4
20260506081526 18 56 0.0 11.3 0.00 0.00 0.00 75 1010.4
20260506081004 18 77 1.6 11.3 0.00 0.00 0.00 75 1010.4
20260506080522 18 52 0.0 11.3 0.00 0.00 0.00 75 1010.4
20260506080111 18 56 0.0 9.7 0.00 0.00 0.00 76 1010.5
20260506073014 18 58 0.0 4.8 0.00 0.00 0.00 74 1010.6
20260506072540 18 98 0.0 6.4 0.00 0.00 0.00 74 1010.6
20260506072056 18 54 0.0 6.4 0.00 0.00 0.00 74 1010.7
20260506071538 18 91 0.0 3.2 0.00 0.00 0.00 74 1010.6
20260506071056 18 124 0.0 3.2 0.00 0.00 0.00 73 1010.6
20260506070519 18 84 0.0 3.2 0.00 0.00 0.00 73 1010.6
20260506062512 19 96 0.0 6.4 0.00 0.00 0.00 71 1011.0
20260506062042 19 80 0.0 6.4 0.00 0.00 0.00 71 1011.1
20260506061523 19 63 0.0 6.4 0.00 0.00 0.00 71 1011.2
20260506061058 19 69 0.0 6.4 0.00 0.00 0.00 70 1011.1
20260506060543 19 61 0.0 4.8 0.00 0.00 0.00 70 1011.1
20260506051100 19 76 0.0 4.8 0.00 0.00 0.00 69 1011.4
20260506051003 19 76 0.0 4.8 0.00 0.00 0.00 69 1011.5
20260506050521 19 46 0.0 8.0 0.00 0.00 0.00 69 1011.5
20260506045041 19 105 0.0 4.8 0.00 0.00 0.00 69 1011.5
20260506044526 19 82 0.0 3.2 0.00 0.00 0.00 68 1011.5
20260506044047 19 10 0.0 3.2 0.00 0.00 0.00 68 1011.5
20260506043513 19 52 0.0 3.2 0.00 0.00 0.00 68 1011.6
20260506043054 19 82 0.0 4.8 0.00 0.00 0.00 68 1011.6
20260506042513 19 56 0.0 6.4 0.00 0.00 0.00 68 1011.6
20260506042045 19 87 0.0 6.4 0.00 0.00 0.00 67 1011.6
20260506041521 19 77 0.0 6.4 0.00 0.00 0.00 67 1011.6
20260506041100 19 79 0.0 6.4 0.00 0.00 0.00 67 1011.5
20260506041002 19 41 0.0 6.4 0.00 0.00 0.00 67 1011.5
20260506040540 19 51 0.0 8.0 0.00 0.00 0.00 67 1011.5
20260506040028 19 86 0.0 8.0 0.00 0.00 0.00 67 1011.5
20260506035524 19 54 0.0 4.8 0.00 0.00 0.00 67 1011.5
20260506035100 20 74 0.0 8.0 0.00 0.00 0.00 66 1011.6
20260506035002 20 74 0.0 8.0 0.00 0.00 0.00 66 1011.5
20260506034520 20 30 0.0 3.2 0.00 0.00 0.00 66 1011.5
20260506034041 20 53 0.0 3.2 0.00 0.00 0.00 66 1011.5
20260506033522 20 36 0.0 3.2 0.00 0.00 0.00 65 1011.4
20260506033048 20 49 0.0 3.2 0.00 0.00 0.00 65 1011.4
20260506032510 20 101 0.0 3.2 0.00 0.00 0.00 64 1011.4
20260506032046 20 153 0.0 3.2 0.00 0.00 0.00 63 1011.3
20260506031511 20 46 0.0 1.6 0.00 0.00 0.00 62 1011.4
20260506031046 20 94 0.0 3.2 0.00 0.00 0.00 62 1011.4
20260506030503 20 103 0.0 3.2 0.00 0.00 0.00 61 1011.4
20260506030044 21 67 0.0 3.2 0.00 0.00 0.00 61 1011.4
20260506025600 21 183 0.0 8.0 0.00 0.00 0.00 60 1011.4
20260506025504 21 59 0.0 8.0 0.00 0.00 0.00 60 1011.3
20260506025042 21 98 1.6 11.3 0.00 0.00 0.00 60 1011.3
20260506024600 21 62 0.0 11.3 0.00 0.00 0.00 59 1011.3
20260506024509 21 80 0.0 11.3 0.00 0.00 0.00 59 1011.4
20260506024024 21 67 0.0 6.4 0.00 0.00 0.00 59 1011.4
20260506023559 21 69 0.0 9.7 0.00 0.00 0.00 58 1011.4
20260506023022 21 73 1.6 9.7 0.00 0.00 0.00 58 1011.4
20260506022557 21 99 1.6 8.0 0.00 0.00 0.00 57 1011.4
20260506022017 21 25 0.0 4.8 0.00 0.00 0.00 57 1011.4
20260506021552 21 98 0.0 4.8 0.00 0.00 0.00 57 1011.4
20260506021018 21 66 0.0 6.4 0.00 0.00 0.00 56 1011.4
20260506020540 21 44 0.0 11.3 0.00 0.00 0.00 56 1011.4
20260506020059 22 122 0.0 11.3 0.00 0.00 0.00 55 1011.3
20260506020003 22 191 0.0 11.3 0.00 0.00 0.00 55 1011.4
20260506015540 22 73 0.0 8.0 0.00 0.00 0.00 55 1011.3
20260506015057 22 94 0.0 8.0 0.00 0.00 0.00 54 1011.2
20260506014539 22 89 0.0 6.4 0.00 0.00 0.00 54 1011.2
20260506014055 22 155 0.0 3.2 0.00 0.00 0.00 53 1011.2
20260506013537 22 101 0.0 4.8 0.00 0.00 0.00 53 1011.0
20260506013100 22 65 0.0 17.7 0.00 0.00 0.00 52 1011.1
20260506013002 22 52 0.0 17.7 0.00 0.00 0.00 52 1011.1
20260506012539 22 171 0.0 8.0 0.00 0.00 0.00 52 1011.0
20260506012053 22 75 1.6 8.0 0.00 0.00 0.00 51 1010.9
20260506011534 22 57 1.6 9.7 0.00 0.00 0.00 51 1010.9
20260506011053 22 141 1.6 9.7 0.00 0.00 0.00 51 1011.0
20260506010534 23 49 0.0 4.8 0.00 0.00 0.00 51 1010.9
20260506010055 23 100 0.0 6.4 0.00 0.00 0.00 50 1010.9
20260506005516 23 66 0.0 6.4 0.00 0.00 0.00 51 1010.8
20260506005055 23 20 0.0 4.8 0.00 0.00 0.00 51 1010.7
20260506004519 23 97 1.6 8.0 0.00 0.00 0.00 50 1010.7
20260506004055 23 103 0.0 3.2 0.00 0.00 0.00 51 1010.7
20260506003515 23 77 0.0 3.2 0.00 0.00 0.00 50 1010.7
20260506003057 23 94 0.0 8.0 0.00 0.00 0.00 50 1010.7
20260506002517 23 100 0.0 8.0 0.00 0.00 0.00 48 1010.6
20260506002036 23 81 0.0 3.2 0.00 0.00 0.00 47 1010.5
20260506001516 24 63 0.0 4.8 0.00 0.00 0.00 46 1010.4
20260506001046 24 101 0.0 8.0 0.00 0.00 0.00 45 1010.5
20260506000534 24 89 0.0 14.5 0.00 0.00 0.00 45 1010.4
20260506000052 24 58 1.6 14.5 0.00 0.00 0.00 45 1010.3
20260505235509 24 60 0.0 6.4 0.00 0.00 0.00 45 1010.3
20260505235045 24 128 0.0 6.4 0.00 0.00 0.00 45 1010.3
20260505234539 25 103 0.0 4.8 0.00 0.00 0.00 44 1010.1
20260505234008 25 89 0.0 8.0 0.00 0.00 0.00 45 1010.2
20260505233529 25 131 1.6 8.0 0.00 0.00 0.00 44 1010.1
20260505233007 25 61 0.0 16.1 0.00 0.00 0.00 44 1010.1
20260505232535 25 68 1.6 16.1 0.00 0.00 0.00 43 1010.2